Location: Fernhill
(41.0167°S, 175.6333°E)
Time: 06:06:51
(UTC+00:00)

USA 215 - Pass Details

Date: 08 November 2025
Orbit: 1101 x 1106 km, 123.0° (Epoch: 10 December)

Event Time Altitude Azimuth Distance (km) Brightness Sun altitude
Rises 08:38:32 0° 130° (SE) 3,946 6.1 -15.6°
Reaches altitude 10° 08:41:06 10° 126° (SE) 2,984 5.4 -16.0°
Maximum altitude 08:47:34 56° 48° (NE) 1,297 3.3 -16.9°
Drops below altitude 10° 08:53:59 10° 330° (NNW) 2,960 5.4 -17.8°
Sets 08:56:30 0° 326° (NW) 3,912 6.1 -18.2°
